Home > Time Zones > World Clock > Weather > Iran > Gorgan > Past weeks

Flag for Iran Weather past 2 weeks in Gorgan, Iran

Now
70 °F

Partly cloudy.


Feels Like: 70 °F
Forecast: 60 / 74 °F
Wind: 9 mph from Southwest

Location: Gorgan Airport

Current Time: Oct 24, 2014 at 7:47:02 PM

Latest Report: Oct 24, 2014 at 6:30 PM


Visibility: N/A

Pressure: 30.04 "Hg

Humidity: 83%

Dew point: 64 °F

Location of GorganLocation

Historic Weather in Gorgan — Graph

°F

Gorgan temperature yesterday

Maximum temperature yesterday: 90 °F (at 2:30 PM)
Minimum temperature yesterday: 46 °F (at 3:30 AM)
Average temperature yesterday: 67 °F

Past Weeks' High & Low Weather Summary

 TemperatureHumidityPressure
High90 °F (Oct 23, 2:30 PM)100% (Oct 11, 9:30 AM)30.39 "Hg (Oct 11, 9:30 AM)
Low46 °F (Oct 13, 6:30 AM)16% (Oct 23, 2:30 PM)29.65 "Hg (Oct 19, 3:30 AM)
Average64 °F73%30.04 "Hg
* Reported Oct 9 6:30 PM — Oct 24 6:30 PM, Gorgan, Weather by CustomWeather, © 2014

Note: Actual official high and low records may vary slightly from our data, if they occured in-between our weather recording intervals... More about our weather records

Advertising

Gorgan weather history for previous 24 hours

 ConditionsComfort  
Time TempWeatherWind HumidityBarometerVisibility
6:30 PM
Oct 24
70 °FPartly cloudy.9 mph83%30.04 "HgN/A
5:30 PM70 °FScattered clouds.9 mph83%30.01 "HgN/A
4:30 PM73 °FPassing clouds.12 mph53%29.98 "HgN/A
3:30 PM77 °FSunny.21 mph65%29.95 "Hg10 mi
2:30 PM81 °FSunny.18 mph45%29.95 "Hg10 mi
1:30 PM81 °FSunny.18 mph45%29.92 "Hg10 mi
12:30 PM81 °FSunny.16 mph45%29.92 "Hg10 mi
11:30 AM79 °FSunny.18 mph48%29.92 "Hg10 mi
10:30 AM75 °FSunny.18 mph54%29.92 "Hg10 mi
9:30 AM72 °FSunny.18 mph61%29.92 "Hg10 mi
8:30 AM70 °FSunny.14 mph64%29.92 "Hg10 mi
7:30 AM66 °FSunny.14 mph64%29.89 "Hg10 mi
6:30 AM63 °FClear.16 mph64%29.86 "Hg10 mi
5:30 AM61 °FClear.14 mph68%29.86 "Hg10 mi
4:30 AM59 °FClear.12 mph68%29.83 "Hg10 mi
3:30 AM55 °FClear.No wind77%29.83 "Hg10 mi
2:30 AM57 °FClear.No wind77%29.86 "Hg10 mi
1:30 AM59 °FClear.5 mph68%29.86 "Hg10 mi
12:30 AM63 °FClear.12 mph64%29.86 "Hg10 mi
11:30 PM
Oct 23
64 °FClear.12 mph68%29.89 "Hg10 mi
10:30 PM57 °FClear.9 mph72%29.89 "Hg10 mi
9:30 PM61 °FClear.5 mph68%29.89 "Hg10 mi
8:30 PM59 °FClear.No wind68%29.92 "Hg10 mi
7:30 PM64 °FClear.5 mph60%29.92 "Hg10 mi
Weather by CustomWeather, © 2014

See weather overviewHow to use our weather pages